Regional Weather Roundup
Issued by NWS

Home | Current Version | Previous Version | Text Only | Print | Product List | Glossary Off
Versions: 1 2 3 4 5 6 7 8 9 10 11 12 13 14 15 16 17 18 19 20 21 22 23 24 25 26 27 28 29 30 31 32 33 34 35 36 37 38 39 40 41 42 43 44 45 46 47 48 49 50

074
ASUS43 KTOP 022159
RWRKS

WEATHER ROUNDUP FOR KANSAS
NATIONAL WEATHER SERVICE GOODLAND KS
400 PM CST FRI DEC 02 2016

NOTE:  "FAIR" INDICATES FEW OR NO CLOUDS BELOW 12,000 FEET WITH NO
SIGNIFICANT WEATHER AND/OR OBSTRUCTIONS TO VISIBILITY.

KSZ001>006-013>018-027>032-041>047-022300-
NORTHWEST KANSAS

CITY           SKY/WX    TMP DP  RH WIND       PRES   REMARKS
GOODLAND       MOSUNNY   43  14  31 NE3       30.21S
HAYS           CLOUDY    45  20  36 N10       30.25R
HILL CITY      MOSUNNY   46  19  34 NE5       30.25F
RUSSELL        MOSUNNY   47  22  37 N9        30.24R
$$

KSZ061>065-074>080-084>089-022300-
SOUTHWEST KANSAS

CITY           SKY/WX    TMP DP  RH WIND       PRES   REMARKS
DODGE CITY     SUNNY     49  12  22 NE9       30.21R
ELKHART          N/A     43  14  31 NE10        N/A
GARDEN CITY    SUNNY     49  11  21 NE9       30.18F
GREAT BEND     SUNNY     49  19  30 N9        30.23S
LIBERAL        CLOUDY    48  14  25 E13       30.17S
$$

KSZ066>073-081>083-090>101-022300-
SOUTHEAST KANSAS

CITY           SKY/WX    TMP DP  RH WIND       PRES   REMARKS
CHANUTE        CLEAR     55  24  30 NE10      30.23R
COFFEYVILLE    SUNNY     56  30  37 NE12      30.21R
HUTCHINSON     SUNNY     52  24  33 NE7       30.23S
MEDICINE LODGE   N/A     51  21  30 NE13      30.20S
NEWTON         SUNNY     51  21  30 NE7       30.23R
PARSONS        CLEAR     55  24  30 NE6       30.24R
WICHITA INTL   MOSUNNY   52  20  28 NE10      30.22R
WICHITA JABRA  SUNNY     51  20  29 NE8       30.22R
WINFIELD       SUNNY     55  22  27 NE9       30.21R
$$

KSZ007>012-019>026-033>040-048>060-102>105-022300-
NORTHEAST KANSAS

CITY           SKY/WX    TMP DP  RH WIND       PRES   REMARKS
CONCORDIA      CLEAR     45  26  47 CALM      30.28R
EMPORIA        CLEAR     50  23  34 NE9       30.25R
LAWRENCE       CLEAR     49  29  46 CALM      30.27F
MANHATTAN      CLEAR     49  26  41 CALM      30.27R
MARYSVILLE     PTCLDY    45  28  53 N3        30.27S
OLATHE IND     CLEAR     48  28  46 N5        30.27S
OLATHE EXE     CLEAR     49  25  39 N3        30.27R
SALINA         SUNNY     50  24  36 N5        30.26F
TOPEKA BILLARD CLEAR     50  28  42 E5        30.28R
TOPEKA FORBES  CLEAR     50  26  39 NE3       30.28R
$$




USA.gov is the U.S. government's official web portal to all federal, state and local government web resources and services.